This is the latest recevied weather packets stored in our database for station/object KC3AWA. If no packets are shown the sender has not sent any weather packets the latest 10 day(s).
| Time | Temp. | Humidity | Pressure | Rain* | Wind** | Luminosity | Snow |
|---|---|---|---|---|---|---|---|
| 1777572341 | 7.22° C | 74% | 1013.6 hPa | 0 mm | - | 126 W/m² | - |
| 1777572038 | 7.22° C | 76% | 1013.8 hPa | 0 mm | - | 104 W/m² | - |
| 1777571737 | 7.22° C | 74% | 1013.8 hPa | 0 mm | - | 70 W/m² | - |
| 1777571436 | 7.78° C | 72% | 1013.8 hPa | 0 mm | - | 59 W/m² | - |
| 1777571132 | 7.78° C | 72% | 1013.6 hPa | 0 mm | - | 112 W/m² | - |
| 1777570827 | 7.78° C | 72% | 1013.6 hPa | 0 mm | - | 293 W/m² | - |
| 1777570524 | 7.22° C | 75% | 1013.7 hPa | 0 mm | - | 278 W/m² | - |
| 1777570221 | 7.22° C | 77% | 1013.7 hPa | 0 mm | - | 362 W/m² | - |
| 1777569915 | 7.22° C | 76% | 1013.7 hPa | 0 mm | - | 237 W/m² | - |
| 1777569612 | 7.22° C | 77% | 1013.9 hPa | 0 mm | - | 148 W/m² | - |
| 1777569308 | 7.22° C | 77% | 1013.8 hPa | 0 mm | - | 154 W/m² | - |
| 1777569005 | 7.22° C | 78% | 1013.6 hPa | 0 mm | - | 151 W/m² | - |
| 1777568701 | 7.78° C | 80% | 1013.4 hPa | 0 mm | - | 110 W/m² | - |
| 1777568399 | 7.78° C | 79% | 1013.6 hPa | 0 mm | - | 243 W/m² | - |
| 1777568096 | 7.22° C | 83% | 1013.8 hPa | 0 mm | - | 312 W/m² | - |
| 1777567792 | 6.67° C | 83% | 1013.7 hPa | 0 mm | - | 410 W/m² | - |
| 1777567488 | 6.11° C | 85% | 1013.3 hPa | 0 mm | - | 300 W/m² | - |
| 1777567186 | 6.11° C | 86% | 1013.6 hPa | 0 mm | - | 186 W/m² | - |
| 1777566884 | 6.11° C | 87% | 1013.4 hPa | 0 mm | - | 128 W/m² | - |
| 1777566581 | 6.11° C | 88% | 1013.6 hPa | 0 mm | - | 75 W/m² | - |
| 1777566279 | 6.11° C | 86% | 1013.7 hPa | 0 mm | - | 58 W/m² | - |
| 1777565976 | 6.11° C | 87% | 1013.7 hPa | 0 mm | - | 48 W/m² | - |
| 1777565671 | 6.11° C | 87% | 1013.3 hPa | 0 mm | - | 68 W/m² | - |
| 1777565369 | 6.11° C | 89% | 1013.6 hPa | 0 mm | - | 225 W/m² | - |
| 1777565064 | 6.11° C | 88% | 1013.4 hPa | 0 mm | - | 237 W/m² | - |
* Rain latest hour (hover to see other rain measurements)
** Current wind speed in m/s (hover to see current wind gust speed)